DW0328 Weather Reports


time (UTC)temp
F
wind
direction
speed
knots
gust
knots
rain 1hr
in
rain 24hr
in
rain mn
in
humidity
%
barometer
mb
20260507031529 65 68 0.0 0.0 0.00 0.00 0.00 65 1016.2
20260507030029 66 68 0.0 0.0 0.00 0.00 0.00 63 1016.0
20260507024531 67 65 0.0 0.0 0.00 0.00 0.00 62 1015.8
20260507023028 68 65 0.0 0.0 0.00 0.00 0.00 60 1015.6
20260507021527 69 65 0.0 2.6 0.00 0.00 0.00 58 1015.6
20260507020030 70 67 0.0 0.0 0.00 0.00 0.00 56 1015.5
20260507014527 71 65 0.0 0.0 0.00 0.00 0.00 54 1015.4
20260507013025 72 62 0.0 0.0 0.00 0.00 0.00 53 1015.5
20260507011526 73 61 0.0 0.0 0.00 0.00 0.00 52 1015.5
20260507010032 74 54 0.0 0.0 0.00 0.00 0.00 52 1015.5
20260507004522 73 60 0.0 0.0 0.00 0.00 0.00 53 1015.5
20260507003021 74 54 0.0 3.5 0.00 0.00 0.00 53 1015.5
20260507001523 74 29 0.9 3.5 0.00 0.00 0.00 52 1015.4
20260507000022 75 65 0.0 3.5 0.00 0.00 0.00 52 1015.4
20260506234538 76 101 0.9 5.2 0.00 0.00 0.00 50 1015.5
20260506233020 77 55 0.9 3.5 0.00 0.00 0.00 49 1015.3
20260506231519 77 34 0.0 5.2 0.00 0.00 0.00 49 1015.4
20260506230018 77 81 0.9 5.2 0.00 0.00 0.00 49 1015.4
20260506224525 77 65 0.9 7.0 0.00 0.00 0.00 50 1015.6
20260506223014 77 23 1.7 7.0 0.00 0.00 0.00 49 1015.8
20260506221514 78 355 1.7 4.3 0.00 0.00 0.00 49 1015.8
20260506220027 77 99 1.7 6.1 0.00 0.00 0.00 51 1016.2
20260506214510 78 53 1.7 7.0 0.00 0.00 0.00 49 1016.5
20260506213007 77 80 0.9 3.5 0.00 0.00 0.00 50 1016.5
20260506211511 77 124 0.9 4.3 0.00 0.00 0.00 51 1016.6
20260506210005 77 49 0.9 4.3 0.00 0.00 0.00 51 1016.8
20260506204503 77 71 0.9 3.5 0.00 0.00 0.00 51 1016.8
20260506203001 77 33 0.0 3.5 0.00 0.00 0.00 50 1016.8
20260506201600 78 38 0.9 5.2 0.00 0.00 0.00 48 1017.0
20260506200057 77 87 0.9 5.2 0.00 0.00 0.00 48 1017.3
20260506194555 76 101 0.9 5.2 0.00 0.00 0.00 45 1017.1
20260506193056 76 103 0.9 5.2 0.00 0.00 0.00 46 1017.4
20260506191552 75 68 0.0 4.3 0.00 0.00 0.00 46 1017.6
20260506190046 74 61 0.0 2.6 0.00 0.00 0.00 48 1017.7
20260506184544 73 129 0.9 3.5 0.00 0.00 0.00 49 1017.8
20260506183043 73 115 0.9 5.2 0.00 0.00 0.00 48 1018.0
20260506181550 72 34 0.9 3.5 0.00 0.00 0.00 48 1018.2
20260506180036 71 59 0.9 3.5 0.00 0.00 0.00 50 1018.2
20260506174532 70 58 0.9 3.5 0.00 0.00 0.00 52 1018.2
20260506173030 68 70 0.0 2.6 0.00 0.00 0.00 53 1018.2
20260506171526 67 101 0.9 3.5 0.00 0.00 0.00 57 1018.3
20260506170018 66 56 0.0 1.7 0.00 0.00 0.00 58 1018.3
20260506164516 64 55 0.0 0.0 0.00 0.00 0.00 63 1018.3
20260506163012 62 54 0.0 1.7 0.00 0.00 0.00 66 1018.3
20260506161505 59 51 0.9 2.6 0.00 0.00 0.00 71 1018.3
20260506160001 58 51 0.0 0.0 0.00 0.00 0.00 74 1018.4
20260506154556 56 49 0.0 2.6 0.00 0.00 0.00 79 1018.3
20260506153053 54 49 0.0 2.6 0.00 0.00 0.00 82 1018.4
20260506151548 52 49 0.0 1.7 0.00 0.00 0.00 85 1018.5
20260506150050 50 49 0.0 0.0 0.00 0.00 0.00 88 1018.5
20260506144550 49 49 0.0 0.9 0.00 0.00 0.00 90 1018.5
20260506143045 48 49 0.0 0.0 0.00 0.00 0.00 90 1018.5
20260506141544 47 49 0.0 0.0 0.00 0.00 0.00 90 1018.4
20260506140042 47 49 0.0 0.0 0.00 0.00 0.00 89 1018.3
20260506134543 46 49 0.0 0.0 0.00 0.00 0.00 89 1018.3
20260506133040 46 49 0.0 0.0 0.00 0.00 0.00 92 1018.3
20260506131549 46 49 0.0 0.0 0.00 0.00 0.00 87 1018.1
20260506130040 47 49 0.0 0.0 0.00 0.00 0.00 88 1018.0
20260506124534 47 49 0.0 0.0 0.00 0.00 0.00 87 1017.9
20260506123032 47 49 0.0 0.0 0.00 0.00 0.00 87 1017.8
20260506121531 47 49 0.0 0.0 0.00 0.00 0.00 87 1017.7
20260506120030 47 49 0.0 0.0 0.00 0.00 0.00 86 1017.6
20260506114528 48 49 0.0 0.0 0.00 0.00 0.00 86 1017.6
20260506113027 48 49 0.0 0.0 0.00 0.00 0.00 86 1017.5
20260506111526 48 49 0.0 0.0 0.00 0.00 0.00 87 1017.5
20260506110025 49 49 0.0 0.0 0.00 0.00 0.00 86 1017.3
20260506104524 49 49 0.0 0.0 0.00 0.00 0.00 86 1017.3
20260506103034 49 49 0.0 0.0 0.00 0.00 0.00 86 1017.4
20260506101523 49 49 0.0 0.0 0.00 0.00 0.00 85 1017.3
20260506100020 49 49 0.0 0.0 0.00 0.00 0.00 86 1017.3
20260506094519 50 49 0.0 0.0 0.00 0.00 0.00 86 1017.4
20260506093016 50 49 0.0 0.0 0.00 0.00 0.00 86 1017.5
20260506091515 50 49 0.0 0.0 0.00 0.00 0.00 86 1017.5
20260506090013 50 49 0.0 0.0 0.00 0.00 0.00 86 1017.7
20260506084512 50 49 0.0 0.0 0.00 0.00 0.00 85 1017.5
20260506083010 50 49 0.0 0.0 0.00 0.00 0.00 85 1017.5
20260506081509 51 49 0.0 0.0 0.00 0.00 0.00 85 1017.6
20260506073007 51 49 0.0 0.0 0.00 0.00 0.00 83 1017.7
20260506071502 52 49 0.0 0.0 0.00 0.00 0.00 82 1017.6
20260506061554 53 49 0.0 0.0 0.00 0.00 0.00 82 1016.8
20260506060117 53 49 0.0 0.0 0.00 0.00 0.00 82 1016.8
20260506044559 56 49 0.0 0.0 0.00 0.00 0.00 78 1016.1
20260506043046 56 49 0.0 0.0 0.00 0.00 0.00 75 1015.9
20260506041547 57 49 0.0 0.0 0.00 0.00 0.00 74 1015.8
20260506040042 58 49 0.0 0.0 0.00 0.00 0.00 74 1015.5
20260506034541 59 49 0.0 0.0 0.00 0.00 0.00 73 1015.3
20260506033039 60 49 0.0 0.0 0.00 0.00 0.00 71 1015.1